Home > Weather > Gdańsk > Past weeks

Flag for Poland Weather for the Past 2 Weeks in Gdańsk, Poland

Now
57 °F

Passing clouds.


Feels Like: 56 °F
Forecast: 42 / 65 °F
Wind: 6 mph from Northeast

Location: Gdansk-Rebiechowo

Current Time: May 6, 2016 at 10:06:57 AM

Latest Report: May 6, 2016 at 9:30 AM


Visibility: N/A

Pressure: 30.27 "Hg

Humidity: 51%

Dew Point: 39 °F

Location of GdańskLocation

Historic Weather in Gdańsk — Graph

°F

Gdańsk Temperature Yesterday

Maximum temperature yesterday: 61 °F (at 10:30 AM)
Minimum temperature yesterday: 41 °F (at 3:30 AM)
Average temperature yesterday: 52 °F

High & Low Weather Summary for the Past Weeks

 TemperatureHumidityPressure
High63 °F (May 3, 12:00 PM)100% (Apr 25, 2:30 AM)30.33 "Hg (Apr 25, 2:30 AM)
Low28 °F (Apr 25, 2:00 AM)29% (May 2, 5:30 PM)29.50 "Hg (Apr 26, 8:00 PM)
Average46 °F66%29.98 "Hg
* Reported Apr 21 9:00 AM — May 6 9:00 AM, Gdańsk, Weather by CustomWeather, © 2016

Note: Actual official high and low records may vary slightly from our data, if they occured in-between our weather recording intervals... More about our weather records

Advertising

Gdańsk Weather History for the Previous 24 Hours

Scroll right to see more
 ConditionsComfort  
Time TempWeatherWind HumidityBarometerVisibility
9:00 AM
Fri, May 6
55 °FPassing clouds.7 mph51%30.27 "HgN/A
8:30 AM55 °FPassing clouds.6 mph55%30.27 "HgN/A
8:00 AM54 °FPassing clouds.8 mph54%30.27 "HgN/A
7:30 AM52 °FPassing clouds.6 mph54%30.27 "HgN/A
7:00 AM48 °FSunny.2 mph66%30.27 "Hg10 mi
6:30 AM43 °FSunny.2 mph76%30.24 "Hg10 mi
6:00 AM41 °FPassing clouds.3 mph81%30.27 "HgN/A
5:30 AM39 °FClear.3 mph87%30.27 "Hg10 mi
5:00 AM39 °FClear.3 mph87%30.27 "Hg10 mi
4:30 AM39 °FClear.5 mph87%30.27 "Hg10 mi
4:00 AM39 °FClear.3 mph87%30.27 "Hg10 mi
3:30 AM41 °FClear.3 mph81%30.27 "Hg10 mi
3:00 AM41 °FClear.3 mph81%30.27 "Hg10 mi
2:30 AM41 °FClear.3 mph87%30.27 "Hg10 mi
2:00 AM41 °FClear.3 mph87%30.30 "Hg10 mi
1:30 AM43 °FClear.2 mph81%30.30 "Hg10 mi
1:00 AM43 °FClear.2 mph81%30.30 "Hg10 mi
12:30 AM43 °FClear.3 mph81%30.30 "Hg10 mi
12:00 AM45 °FClear.2 mph76%30.30 "Hg10 mi
11:30 PM
Thu, May 5
46 °FClear.2 mph66%30.30 "Hg10 mi
11:00 PM45 °FClear.1 mph66%30.30 "Hg10 mi
10:30 PM48 °FClear.1 mph58%30.30 "Hg10 mi
10:00 PM50 °FClear.2 mph54%30.30 "Hg10 mi
9:30 PM50 °FClear.3 mph54%30.30 "Hg10 mi
9:00 PM52 °FPassing clouds.5 mph50%30.30 "HgN/A
8:30 PM54 °FPassing clouds.5 mph47%30.30 "HgN/A
8:00 PM55 °FPassing clouds.6 mph47%30.30 "HgN/A
7:30 PM57 °FPassing clouds.5 mph41%30.30 "HgN/A
7:00 PM57 °FPassing clouds.7 mph41%30.30 "HgN/A
6:30 PM57 °FPassing clouds.10 mph41%30.30 "HgN/A
6:00 PM59 °FPassing clouds.10 mph42%30.30 "HgN/A
5:30 PM61 °FPassing clouds.12 mph39%30.30 "HgN/A
5:00 PM61 °FPassing clouds.13 mph36%30.30 "HgN/A
4:30 PM61 °FPassing clouds.13 mph39%30.30 "HgN/A
4:00 PM61 °FPassing clouds.13 mph42%30.30 "HgN/A
3:30 PM61 °FPassing clouds.13 mph42%30.30 "HgN/A
3:00 PM61 °FSunny.13 mph45%30.30 "Hg10 mi
2:30 PM61 °FPassing clouds.13 mph42%30.33 "HgN/A
2:00 PM61 °FPassing clouds.13 mph48%30.33 "HgN/A
1:30 PM61 °FPassing clouds.10 mph45%30.33 "HgN/A
1:00 PM61 °FSunny.13 mph45%30.33 "Hg10 mi
12:30 PM61 °FSunny.10 mph52%30.33 "Hg10 mi
12:00 PM61 °FPassing clouds.10 mph48%30.33 "HgN/A
11:30 AM59 °FSunny.12 mph55%30.33 "Hg10 mi
11:00 AM61 °FPassing clouds.9 mph55%30.30 "HgN/A
10:30 AM61 °FPassing clouds.9 mph52%30.30 "HgN/A
10:00 AM59 °FPassing clouds.8 mph55%30.30 "HgN/A
Weather by CustomWeather, © 2016

See weather overviewHow to use our weather pages